Miscellaneous Local Product
Issued by NWS Hastings, NE

Home | Current Version | Previous Version | Graphics & Text | Print | Product List | Glossary On
Versions: 1 2 3 4 5 6 7 8 9 10 11 12 13 14 15 16 17 18 19 20 21 22 23 24 25 26 27 28 29 30 31 32 33 34 35 36 37 38 39 40 41 42 43 44 45 46 47 48 49 50
000
AXUS43 KGID 220102
MISGRI

GID CWA HOURLY WEATHER ROUNDUP
NATIONAL WEATHER SERVICE HASTINGS NE
700 PM CST FRI NOV 21 2014

NOTE: "FAIR" INDICATES FEW OR NO CLOUDS BELOW 12,000 FEET WITH NO
SIGNIFICANT WEATHER AND/OR OBSTRUCTIONS TO VISIBILITY.

...SOUTH CENTRAL NEBRASKA...

CITY           SKY/WX    TMP DP  RH WIND       PRES   REMARKS
GRAND ISLAND   PTCLDY    35  27  72 S6        29.98F WCI  30
HASTINGS       CLOUDY    42  28  57 S8        29.97S
KEARNEY        CLEAR     34  25  69 SE6       29.97S WCI  29
ORD            CLOUDY    41  29  62 S6        29.92S
YORK           CLOUDY    39  32  75 SE5       29.99F
AURORA         CLOUDY    41  31  66 S6        29.98F
LEXINGTON      CLEAR     35  27  72 S8        29.93S WCI  28
HOLDREGE       CLEAR     35  25  69 SE5       29.95F WCI  30
HEBRON         CLOUDY    38  32  79 S8        30.02S WCI  32

...NEBRASKA PANHANDLE...

CITY           SKY/WX    TMP DP  RH WIND       PRES   REMARKS
CHADRON        CLEAR     34  27  75 SW8       29.87R WCI  27
ALLIANCE       CLEAR     31  18  58 W7        29.88R WCI  24
SCOTTSBLUFF    PTCLDY    40  20  44 W5        29.89S
SIDNEY         CLEAR     32  17  54 W3        29.92R

...WESTERN AND NORTH CENTRAL NEBRASKA...

CITY           SKY/WX    TMP DP  RH WIND       PRES   REMARKS
VALENTINE      PTCLDY    35  29  78 CALM      29.86R
AINSWORTH      PTCLDY    37  28  68 S8        29.85S WCI  31
ONEILL         CLOUDY    42  34  73 S8        29.89R
BROKEN BOW     PTCLDY    42  30  62 SE8       29.91F
IMPERIAL       CLEAR     39  23  52 S6        29.91R WCI  35
NORTH PLATTE   PTCLDY    31  24  75 SE3       29.90S
MCCOOK         CLEAR     41  31  67 S5        29.93R

...EASTERN NEBRASKA...

CITY           SKY/WX    TMP DP  RH WIND       PRES   REMARKS
NORFOLK        CLOUDY    36  29  75 S12       29.94F WCI  28
SO SIOUX CITY  CLOUDY    36  27  69 S15       29.99F WCI  27
TEKAMAH        CLOUDY    36  27  69 SE12      30.02F WCI  28
COLUMBUS       CLOUDY    36  28  75 SE6       30.00F WCI  31
ALBION         CLOUDY    37  28  71 S8        29.95F WCI  31
OMAHA EPPLEY   CLOUDY    39  32  76 S14       30.06F WCI  31
OFFUTT AFB     CLOUDY    38  33  82 SE13      30.05S WCI  30
MILLARD        CLOUDY    39  32  75 SE8       30.05S WCI  34
LINCOLN        CLOUDY    39  34  82 S14       30.04F WCI  31
NEBRASKA CITY  CLOUDY    36  31  83 S9        30.07S WCI  29
BEATRICE       CLOUDY    36  35  96 S7        30.04F FOG     WCI  30
FALLS CITY     CLOUDY    35  33  92 E5        30.07F WCI  31

...NORTHERN KANSAS...

CITY           SKY/WX    TMP DP  RH WIND       PRES   REMARKS
GOODLAND       PTCLDY    39  28  64 S7        29.93R WCI  34
HILL CITY      PTCLDY    36  33  89 E5        29.98R WCI  32
NORTON         CLEAR     39  32  75 SE10      29.95R WCI  32
PHILLIPSBURG   CLOUDY    46  32  57 SE6       29.99R
SMITH CENTER   CLOUDY    37  30  75 SE8       30.01R WCI  31
BELOIT         CLOUDY    37  34  87 SE6       30.01S WCI  33
HAYS           CLOUDY    41  28  60 S9        29.99S
RUSSELL        CLOUDY    38  36  92 S8        29.99R WCI  32
CONCORDIA      FOG       35  35 100 E6        30.02S VSB 3/4 WCI  30
SALINA         FOG       39  37  92 E6        30.04S VSB 1/4 WCI  35
TOPEKA         CLOUDY    40  38  93 E3        30.07S FOG



USA.gov is the U.S. government's official web portal to all federal, state and local government web resources and services.